Weather in Ohmatov

Ukraine / Cherkassi District     49°10′45″N   30°14′07″E
temp.,
°C
wind,
m/s
gust,
m/s
humid.,
%
clouds,
%
prec.,
mm/h
press.,
hPa
HPBL,
m
16 april, fri
fri1600:00+8nnw5892100 1.1 1011410
03:00+7nw4792100 1.6 1011415
06:00+6nw5794100 2.5 1012369
09:00+5nw5588100 3.8 1012476
12:00+6nw4688100 0.3 1012677
15:00+7wnw5679100 0.6 1013957
18:00+7wnw5777100 0.3 10131077
21:00+5wnw5882100 0.4 1015592
17 april, sat
sat1700:00+4w5886100 0.0 1016716
03:00+4w5778100 0.0 1017842
06:00+3w4884100 0.0 1018637
09:00+3w3796100 0.3 1019725
12:00+4w2696100 0.9 1020460
15:00+7wnw357791 1.1 1020934
18:00+8wnw2375100 0.1 1019598
21:00+6nw238849 0.2 1020191
18 april, sun
sun1800:00+3nw23937 0.0 102069
03:00+3w119273 0.0 101915
06:00+2w339313 0.0 101850
09:00+6w347633 0.0 1018366
12:00+11sw4559100 0.0 1017964
15:00+13wsw4550100 0.1 10161877
18:00+12w2355100 0.0 10161032
21:00+10se0062100 0.1 101610
19 april, mon
mon1900:00+10w1162100 0.0 101510
03:00+8s2573100 0.0 1015143
06:00+8w117797 0.0 101532
09:00+10nne2270100 0.0 1014366
12:00+11e446884 0.5 10131037
15:00+13ene445679 0.9 10101550
18:00+10e5773100 0.3 1009641
21:00+8ene4986100 0.4 1008515
20 april, tue
tue2000:00+7n61089100 0.0 1004521
03:00+7n71294100 0.7 1001788
06:00+7nnw91495100 1.4 9971139
09:00+7nnw101693100 5.1 995926
12:00+7nw111690100 3.6 9951179
15:00+7wnw111784100 5.3 9971302
18:00+8wnw91679100 0.1 9991202
21:00+8w8147495 0.2 1002855